Gastonia, NC

12:32 PM EST on January 23, 2020 (GMT -0500)
Gastonia Municipal

Weather History for KAKH - November, 2019

Change the Weather History Date:

Friday, November 22, 2019

  Actual Average (KCLT) Record (KCLT)
Temperature  
Mean Temperature 55 °F -  
Max Temperature 64 °F 58 °F 76 °F (2011)
Min Temperature 46 °F 36 °F 13 °F (2008)
Degree Days  
Heating Degree Days 10    
Growing Degree Days 5 (Base 50)    
Moisture  
Dew Point 45 °F    
Average Humidity 64    
Maximum Humidity 80    
Minimum Humidity 47    
Precipitation  
Precipitation 0.00 in - - ()
Sea Level Pressure  
Sea Level Pressure 30.03 in    
Wind  
Wind Speed 4 mph ()    
Max Wind Speed 9 mph    
Max Gust Speed -    
Visibility 10.0 miles    
Events      
Averages and records for this station are not official NWS values.
T = Trace of Precipitation, MM = Missing Value Source: Averaged Metar Reports

Daily Weather History Graph

Daily Weather History Graph

Search for Another Location

Airport or City:

Astronomy

Nov. 22, 2019 Rise Set
Actual Time 7:06 AM EST 5:15 PM EST
Civil Twilight 6:38 AM EST 5:42 PM EST
Nautical Twilight 6:07 AM EST 6:13 PM EST
Astronomical Twilight 5:37 AM EST 6:43 PM EST
Moon 2:24 AM EST (11/22) 3:02 PM EST (11/22)
Length of Visible Light 11h 03m
Length of Day
10h 08m
Waning Crescent, 20% of the Moon is Illuminated
Nov 22
Waning Crescent
Nov 26
New
Dec 4
First Quarter
Dec 12
Full
Dec 18
Last Quarter

Hourly Weather History & Observations

Time (EST) Temp. Dew Point Humidity Pressure Visibility Wind Dir Wind Speed Gust Speed Precip Events Conditions
12:54 AM 46.9 °F 41.0 °F 80% 30.12 in 10.0 mi SW 3.5 mph - N/A   Clear
1:54 AM 46.0 °F 39.9 °F 79% 30.11 in 10.0 mi Calm Calm - N/A   Clear
2:54 AM 46.0 °F 39.9 °F 79% 30.09 in 10.0 mi Calm Calm - N/A   Clear
3:54 AM 48.9 °F 42.1 °F 77% 30.08 in 10.0 mi SW 3.5 mph - N/A   Mostly Cloudy
4:54 AM 51.1 °F 41.0 °F 68% 30.06 in 10.0 mi SSW 5.8 mph - N/A   Overcast
5:54 AM 53.1 °F 41.0 °F 64% 30.06 in 10.0 mi Variable 5.8 mph - N/A   Mostly Cloudy
6:54 AM 53.1 °F 41.0 °F 64% 30.06 in 10.0 mi SW 5.8 mph - N/A   Overcast
7:54 AM 55.0 °F 41.0 °F 59% 30.06 in 10.0 mi SW 6.9 mph - N/A   Overcast
8:54 AM 55.9 °F 41.0 °F 57% 30.08 in 10.0 mi Variable 6.9 mph - N/A   Scattered Clouds
9:54 AM 57.0 °F 41.0 °F 55% 30.08 in 10.0 mi SW 8.1 mph - N/A   Mostly Cloudy
10:54 AM 59.0 °F 42.1 °F 53% 30.06 in 10.0 mi SSW 6.9 mph - N/A   Scattered Clouds
11:54 AM 60.1 °F 42.1 °F 51% 30.05 in 10.0 mi WSW 9.2 mph - N/A   Mostly Cloudy
12:54 PM 63.0 °F 43.0 °F 48% 30.00 in 10.0 mi SW 4.6 mph - N/A   Clear
1:54 PM 64.9 °F 44.1 °F 47% 29.97 in 10.0 mi WSW 6.9 mph - N/A   Clear
2:54 PM 64.9 °F 45.0 °F 48% 29.96 in 10.0 mi SW 5.8 mph - N/A   Scattered Clouds
3:54 PM 64.9 °F 46.9 °F 52% 29.94 in 10.0 mi Variable 6.9 mph - N/A   Clear
4:54 PM 64.9 °F 48.0 °F 54% 29.96 in 10.0 mi SW 3.5 mph - N/A   Clear
5:54 PM 62.1 °F 48.9 °F 62% 29.99 in 10.0 mi Variable 3.5 mph - N/A   Clear
6:54 PM 59.0 °F 48.9 °F 69% 30.00 in 10.0 mi SW 3.5 mph - N/A   Mostly Cloudy
7:54 PM 59.0 °F 50.0 °F 72% 30.01 in 10.0 mi Calm Calm - N/A   Overcast
8:54 PM 59.0 °F 50.0 °F 72% 30.02 in 10.0 mi Calm Calm - N/A   Overcast
9:54 PM 57.9 °F 51.1 °F 78% 30.01 in 10.0 mi SSW 3.5 mph - N/A   Overcast
10:54 PM 59.0 °F 51.1 °F 75% 30.00 in 10.0 mi SSW 4.6 mph - N/A   Overcast
11:54 PM 59.0 °F 51.1 °F 75% 29.99 in 9.0 mi Calm Calm - N/A   Overcast